Wind_Speed
5 5 5 5 6 6 7 8 8 9 9 10 11 10 9 9 9 8 8 8 7 6 6 6 6 6 7 7 7 7 6 6 6 7 8 7 7 6 5 6 8 9 9 8 9 8 6 6 7 8 7 6 6 6 6 7 8 8 8 8 10 9 8
4 4 4 5 6 7 7 8 9 8 8 9 10 10 10 9 9 9 9 8 8 7 7 7 6 6 6 6 6 6 6 6 5 6 7 7 7 7 6 6 7 8 8 7 8 8 7 7 7 6 7 7 7 6 5 5 7 8 8 9 9 10 10
4 4 4 5 6 7 7 8 8 8 7 8 9 9 10 10 10 10 10 9 9 8 8 8 7 7 6 6 5 5 5 5 5 5 6 6 6 6 6 7 7 7 7 5 5 6 7 7 6 7 8 8 7 7 6 6 7 7 8 8 8 9 10
4 4 5 5 6 7 7 8 8 7 7 8 8 8 9 9 9 9 10 10 9 8 8 8 7 7 6 5 4 4 4 5 5 4 5 5 4 5 5 6 6 6 6 6 6 7 7 6 6 6 8 9 9 9 7 5 7 8 8 8 8 7 7
4 4 5 5 6 6 7 8 7 7 7 7 8 9 9 9 9 9 10 9 8 8 8 8 7 6 6 6 6 6 5 5 6 6 5 5 4 4 4 5 5 5 5 6 7 7 7 8 7 5 7 9 8 9 8 6 7 7 7 8 7 7 7
4 4 4 5 6 6 7 8 8 8 7 8 9 9 9 10 10 10 10 10 8 8 8 8 7 6 6 8 8 7 6 7 7 6 7 7 6 5 4 5 6 6 5 5 6 6 7 8 7 6 8 8 7 8 9 8 7 8 14 14 13 14 12
4 4 4 5 6 6 7 8 8 8 8 8 9 9 9 10 10 10 11 10 8 7 7 8 8 8 8 8 9 9 9 8 8 7 7 7 7 7 7 7 7 7 6 6 6 7 7 8 8 7 8 8 8 8 7 7 10 14 13 11 13 16 14
3 3 3 4 6 7 7 8 8 8 8 8 8 9 10 10 9 10 10 9 7 6 6 7 7 8 9 9 11 12 12 12 11 10 9 9 8 9 8 8 8 7 7 6 6 7 8 9 9 9 8 6 6 6 4 3 9 14 12 9 14 18 16
2 2 2 3 6 7 7 7 7 7 8 8 8 9 10 10 10 9 9 8 6 5 6 7 7 7 9 11 11 12 13 13 12 11 11 10 10 9 8 7 7 7 7 7 7 8 8 9 9 9 9 8 6 5 4 3 7 12 15 13 15 19 18
2 2 3 5 6 6 6 6 6 7 8 8 8 9 10 9 10 9 8 7 5 5 6 7 7 8 9 11 11 11 11 11 9 9 10 9 9 9 8 8 7 6 7 7 7 8 8 8 8 7 8 8 7 5 4 4 5 8 14 16 15 16 16
2 2 4 5 6 5 6 6 6 7 8 8 8 9 9 9 9 9 8 7 6 6 7 7 7 7 8 9 9 9 10 9 7 7 8 8 8 8 8 8 7 6 7 7 7 7 7 7 7 7 8 8 8 8 5 3 5 7 10 12 14 14 13
2 3 5 6 5 5 6 6 7 8 8 7 7 8 7 7 7 7 6 6 6 7 8 8 7 7 9 10 9 8 9 8 7 7 7 7 7 8 8 8 8 7 7 6 6 7 7 7 7 7 7 8 9 9 9 4 3 7 9 9 11 13 12
3 4 5 6 5 6 6 6 7 7 8 7 7 7 6 6 6 6 6 6 6 7 8 8 8 9 9 9 8 8 8 8 7 7 8 8 8 8 8 9 9 9 9 7 7 7 7 7 7 7 7 7 7 8 9 6 5 6 8 8 8 10 10
4 4 5 6 6 6 6 6 6 6 7 7 6 6 6 6 6 6 6 6 6 7 7 8 8 8 7 8 8 8 8 8 7 8 8 9 9 9 9 9 10 10 10 9 9 8 8 8 8 8 8 7 8 8 8 7 6 7 7 8 8 10 11
4 5 6 6 6 5 5 4 4 5 6 6 6 5 5 6 6 5 6 6 6 8 8 8 7 6 6 7 8 8 8 8 8 8 9 10 10 10 10 10 11 11 10 10 10 10 10 10 9 10 10 9 10 10 9 8 7 7 8 9 9 10 13
5 6 6 6 5 4 4 3 3 4 5 5 4 4 5 5 5 6 6 6 6 7 6 6 6 6 7 7 7 8 8 9 9 9 10 10 10 10 11 11 12 11 10 11 11 11 11 11 10 11 11 11 11 11 11 11 9 8 9 10 10 11 13
6 6 6 5 5 4 4 3 3 4 5 4 3 4 4 5 5 5 6 6 5 5 5 6 6 7 7 7 8 8 8 9 10 10 11 11 11 12 12 12 12 12 11 12 12 13 13 12 12 12 12 12 12 12 12 13 12 10 10 11 12 12 12
6 6 6 6 5 4 3 3 3 4 4 3 3 4 4 4 5 5 5 5 6 6 7 7 7 7 7 8 8 8 9 9 10 11 11 12 12 13 13 13 14 13 13 13 13 14 14 14 13 13 13 12 13 13 13 13 13 12 11 11 12 13 13
7 7 7 7 5 2 2 2 3 3 3 3 3 4 4 4 4 5 6 6 7 7 7 7 7 7 7 8 8 8 9 9 10 11 12 12 13 14 14 15 15 15 14 14 14 14 14 14 14 14 14 13 12 12 13 12 12 12 12 12 12 12 14
8 8 8 7 4 2 2 2 2 3 3 3 4 4 4 5 5 5 6 7 7 7 7 7 8 7 7 7 8 8 9 9 10 11 11 12 13 14 16 16 17 18 17 16 14 13 12 13 13 13 14 13 12 12 12 12 12 12 12 13 13 13 13
8 9 8 7 5 4 3 2 2 3 3 3 4 4 5 5 5 6 6 6 7 7 8 7 7 7 7 7 7 8 8 9 10 10 11 12 13 14 16 17 18 19 20 20 18 16 14 12 12 13 13 13 13 13 12 12 12 13 13 12 13 13 13
8 9 9 7 6 5 4 2 2 3 4 4 4 4 4 5 5 6 6 7 7 8 8 8 7 6 6 6 7 8 8 9 9 10 11 12 13 14 15 17 19 20 20 21 21 21 21 19 17 15 14 13 13 13 13 13 13 13 13 13 12 13 13
9 10 9 7 6 6 5 3 3 4 4 4 4 4 4 5 5 5 6 7 8 8 9 10 9 8 7 7 7 7 8 9 9 9 10 11 11 12 13 14 17 19 20 21 22 22 22 23 23 22 20 18 15 13 13 13 14 13 13 13 12 12 12
10 10 10 8 7 7 5 4 4 5 5 5 4 4 4 5 5 6 6 7 8 8 9 11 10 8 8 9 8 7 8 9 9 9 9 9 10 10 10 11 11 12 14 16 19 21 22 23 23 23 23 23 21 19 15 13 13 13 13 13 13 12 12
11 11 10 9 8 7 6 5 5 5 6 5 5 5 5 5 6 6 6 7 8 8 9 10 10 8 8 9 10 8 7 8 8 8 9 9 9 9 9 9 9 9 10 11 13 15 19 21 22 22 22 22 23 23 21 18 14 12 12 12 13 13 12
12 12 11 10 10 8 7 6 6 6 6 6 6 6 6 6 7 6 7 7 8 8 8 9 9 9 7 9 11 9 7 8 8 8 9 8 8 8 8 9 9 8 9 10 8 8 11 13 16 18 18 19 21 21 22 22 19 16 13 12 12 13 12
13 12 12 12 11 9 8 7 7 7 7 7 7 7 7 7 7 7 7 7 8 8 8 8 8 8 7 8 11 10 7 8 9 8 9 9 9 9 8 8 9 8 7 8 7 7 7 8 10 12 13 14 16 18 19 19 19 18 16 14 12 12 12
14 14 13 13 12 10 9 9 8 8 8 7 7 7 7 7 8 7 7 7 7 7 7 7 7 7 7 9 11 9 7 7 8 8 9 9 9 9 9 8 9 9 8 9 10 10 9 8 9 10 11 11 13 15 17 17 17 17 16 15 13 12 12
15 15 15 14 13 12 11 10 9 9 9 8 8 7 7 7 8 8 8 7 7 7 7 7 7 6 7 9 10 7 6 7 8 8 9 9 9 9 9 8 8 8 9 10 11 12 11 9 8 9 9 9 9 12 15 16 15 14 14 13 12 11 11
17 16 16 16 14 13 13 12 11 10 10 9 9 8 8 8 8 8 8 7 7 7 7 7 6 6 6 8 8 5 5 6 7 7 8 8 8 8 8 8 8 7 8 10 10 11 12 10 7 7 8 7 8 9 10 11 12 13 13 12 12 11 11
18 17 17 17 15 15 14 13 12 12 11 11 10 9 9 8 8 8 8 7 7 7 7 8 7 6 6 9 8 4 4 6 6 7 8 8 8 8 9 11 10 8 8 10 10 9 10 9 6 5 6 6 7 8 7 7 7 9 10 10 11 12 12
19 18 18 17 16 16 15 14 13 13 12 12 11 10 9 9 8 8 7 8 8 7 6 8 8 7 7 9 9 4 3 6 7 6 7 8 8 8 8 10 11 10 10 10 9 8 8 8 6 4 4 6 7 7 6 5 4 4 5 6 7 8 8
19 19 18 18 17 16 15 15 14 14 13 13 12 11 10 9 9 8 7 8 8 7 6 7 8 8 8 10 10 6 4 5 7 6 7 8 8 8 8 8 9 10 10 9 9 7 7 8 6 4 3 5 6 6 5 5 5 4 3 3 4 4 4
20 19 19 18 18 17 16 16 16 16 15 14 13 12 11 10 10 9 8 8 8 7 7 8 8 9 9 10 11 9 5 4 6 7 7 7 7 8 7 7 7 9 9 8 8 7 6 7 8 7 6 7 7 8 6 4 3 4 3 3 4 5 5
20 19 19 19 19 18 17 17 17 17 16 15 14 14 13 11 11 10 9 8 8 7 8 8 8 9 9 9 12 11 6 4 7 7 6 7 7 7 7 7 7 9 9 7 7 7 6 7 8 9 9 9 8 10 8 3 3 4 4 5 6 7 7
20 19 19 20 20 19 19 18 17 17 16 16 16 15 14 13 12 11 10 10 9 8 8 8 8 9 9 9 11 13 10 9 9 7 6 6 7 7 8 8 8 9 8 7 6 6 6 7 8 8 9 8 9 10 8 4 3 5 6 6 7 7 8
21 19 20 21 20 20 20 19 18 18 17 17 16 16 15 14 13 12 12 11 10 10 9 9 8 9 10 10 11 13 13 12 11 8 5 6 7 8 8 8 9 9 8 7 6 6 5 6 7 7 7 8 9 8 5 3 4 5 5 6 7 7 8
Wind_Direction
37 33 31 18 7 6 9 12 14 18 25 25 18 15 16 14 8 359 349 340 333 326 314 302 298 300 300 300 300 299 296 291 289 285 283 284 281 277 275 267 263 267 269 268 273 280 286 287 288 287 286 287 293 297 290 283 279 274 271 270 267 260 252
32 26 23 16 7 9 14 13 14 22 29 25 17 16 18 18 15 7 0 354 352 346 337 329 320 314 310 309 309 306 301 296 291 289 290 292 292 295 294 282 277 279 276 271 273 278 282 285 288 291 296 298 297 299 302 297 289 280 276 274 271 269 262
27 21 17 15 9 10 14 11 10 19 27 24 18 19 19 17 13 9 5 3 1 355 351 352 350 344 338 330 327 325 322 317 309 302 304 309 309 310 311 307 306 305 300 296 294 297 295 289 289 301 310 313 311 307 300 292 291 288 284 278 272 270 265
23 15 10 8 8 10 11 7 6 13 22 22 17 19 17 12 6 4 3 2 3 0 359 1 1 359 349 342 349 352 342 340 348 345 328 322 324 328 331 327 327 332 330 324 318 314 306 301 302 307 311 312 311 304 298 299 299 294 287 278 270 266 268
13 7 3 1 4 7 8 8 6 8 15 15 15 16 12 7 2 358 359 359 1 3 3 3 0 352 352 8 21 16 5 7 16 18 5 1 4 357 354 345 335 336 339 333 326 321 316 314 312 306 307 311 311 303 300 296 282 295 333 337 336 347 346
7 359 353 355 2 5 8 11 9 8 10 9 12 11 5 2 357 354 356 356 356 359 3 9 11 8 15 27 30 23 20 19 20 26 21 20 24 16 8 6 357 352 355 353 342 336 332 323 312 305 311 314 311 300 298 300 310 7 22 10 5 13 20
4 358 352 356 6 11 12 14 13 12 11 9 7 2 356 355 353 352 352 353 354 357 6 18 29 39 44 45 43 42 45 39 34 42 37 31 33 27 17 19 18 11 7 4 354 349 348 338 326 325 322 311 308 303 302 329 5 27 27 17 19 23 32
6 4 355 1 16 23 21 18 16 13 9 5 358 352 351 351 352 350 350 357 359 359 16 28 33 43 54 58 55 54 57 56 52 54 53 48 46 39 28 26 29 27 19 13 7 4 0 354 349 347 339 321 315 305 290 3 37 38 32 37 43 36 34
32 14 14 31 39 37 29 23 20 14 6 360 351 350 354 354 354 356 359 7 5 7 30 35 37 51 61 63 61 56 51 48 46 46 47 46 43 39 35 31 32 30 20 14 13 10 4 0 360 0 354 344 335 313 301 32 55 45 37 41 45 38 34
63 41 47 53 48 42 38 33 27 19 10 3 356 354 358 358 0 8 13 14 16 30 38 41 55 67 65 62 61 51 35 24 26 30 29 31 31 29 27 26 26 25 17 10 10 10 6 5 5 8 4 353 347 328 320 18 46 43 40 42 43 36 33
75 67 65 61 54 52 51 43 35 26 16 7 0 358 0 1 7 17 20 20 28 40 43 50 67 73 71 69 62 44 24 15 20 23 19 21 24 24 23 24 24 26 22 15 14 12 7 7 5 7 5 354 358 356 340 9 51 41 36 40 42 36 31
84 80 76 73 71 68 57 44 34 27 19 10 3 0 2 6 17 24 23 25 36 44 45 51 65 78 83 76 56 31 20 20 25 26 24 26 28 29 30 31 31 28 25 23 25 22 16 13 5 6 7 0 5 2 343 339 66 50 37 36 37 32 25
101 93 88 89 89 76 59 43 31 25 20 11 3 4 10 18 30 33 32 35 40 45 52 65 79 81 74 58 37 25 22 23 29 33 34 35 36 35 33 35 36 29 26 27 28 28 26 24 18 17 18 12 16 7 349 1 79 76 49 44 41 33 25
126 112 109 109 99 79 60 43 31 27 20 12 6 9 20 33 40 41 46 48 50 60 70 77 76 63 44 32 27 30 30 31 38 41 41 41 40 38 35 36 36 31 29 30 30 31 30 29 30 30 31 26 28 25 3 9 70 90 66 53 50 44 37
142 132 131 127 110 87 67 50 37 31 21 14 13 19 35 49 50 51 61 63 71 81 76 64 52 36 28 33 37 39 39 40 46 46 45 45 42 40 39 39 37 33 32 34 34 35 32 33 37 37 37 36 34 34 22 14 42 72 68 54 51 48 42
155 150 148 140 121 99 82 65 49 34 23 18 24 39 56 63 59 62 73 77 82 82 65 46 41 40 42 47 50 50 48 48 51 50 49 48 45 45 44 42 40 35 35 39 41 40 37 36 40 41 41 41 38 37 34 30 40 62 68 56 46 44 42
164 163 160 148 128 110 90 74 52 30 24 29 47 66 75 75 72 73 76 80 81 72 61 56 55 54 54 55 56 57 57 57 56 55 54 51 48 47 46 44 41 37 39 43 43 42 41 40 43 44 44 46 46 44 43 44 48 58 67 61 49 42 41
170 171 169 152 135 116 89 72 45 25 29 49 71 88 93 87 85 86 83 82 80 74 70 69 66 63 61 60 60 61 62 62 61 60 57 54 52 50 48 45 41 39 42 46 46 44 42 43 47 47 47 50 50 50 51 52 55 59 64 63 54 45 40
175 175 170 155 140 121 94 73 35 29 45 73 88 99 102 96 93 94 89 84 81 75 69 66 65 66 64 64 65 66 66 65 65 63 60 58 56 54 51 48 44 42 42 43 44 44 44 46 48 46 45 48 51 53 55 55 57 61 62 62 57 49 42
179 176 173 162 151 145 129 82 34 46 75 89 98 105 105 101 98 95 91 84 77 71 68 67 66 66 68 69 69 71 71 71 69 67 65 63 62 59 57 53 51 52 53 52 49 47 45 46 47 48 45 44 47 52 55 57 58 59 60 59 56 51 44
180 176 175 167 158 154 139 88 52 81 99 101 103 106 108 109 106 100 93 83 77 72 68 65 65 66 68 71 76 77 75 76 76 73 70 69 66 65 62 60 60 62 63 63 64 66 65 58 50 46 43 43 48 51 54 56 56 57 57 56 53 49 45
181 178 177 174 162 155 143 107 92 106 112 112 109 109 114 117 115 110 100 89 84 76 67 68 77 84 81 75 77 79 77 77 79 78 75 73 71 70 68 67 67 68 69 70 71 73 74 73 68 60 52 48 48 49 54 56 55 55 54 52 51 47 42
183 181 181 179 166 158 147 123 117 122 124 122 118 119 123 124 124 117 107 98 91 80 74 76 81 93 102 93 81 79 82 79 77 79 78 76 76 74 73 73 69 66 67 70 73 75 75 75 73 70 68 67 61 55 53 53 52 53 52 50 45 40 39
184 185 184 180 169 163 152 135 131 133 132 131 129 131 133 133 133 124 115 109 98 89 86 83 79 83 100 102 90 79 81 80 76 78 78 77 79 79 78 78 71 64 65 66 68 72 75 76 74 72 71 70 69 67 62 57 51 47 50 51 43 36 36
182 186 187 180 171 166 157 145 140 140 140 139 139 141 141 142 141 135 127 119 109 103 98 90 83 80 91 103 98 85 80 81 77 77 77 78 81 80 81 81 76 75 78 76 69 68 71 73 72 71 69 69 70 70 68 68 63 50 46 48 45 39 30
182 186 187 181 172 168 164 155 147 145 146 145 145 146 147 148 148 146 139 127 119 117 110 98 89 82 85 102 101 88 82 83 81 78 77 76 79 81 82 83 81 79 76 74 72 68 67 66 64 63 62 63 65 67 68 69 69 65 56 49 47 42 29
182 186 186 181 175 173 169 159 152 151 151 150 151 151 151 153 153 151 148 137 128 128 124 111 97 86 85 101 101 91 86 87 84 82 79 77 78 79 78 81 84 82 73 74 84 82 71 70 70 67 64 62 62 63 66 66 64 65 62 54 50 42 32
182 185 186 182 178 177 170 161 156 157 155 155 155 155 155 160 160 157 157 148 137 139 141 128 110 95 92 102 101 92 88 92 89 85 83 81 80 79 78 80 84 83 81 90 100 100 90 81 81 79 76 72 66 64 66 65 62 63 63 60 57 48 40
182 185 185 183 182 178 171 166 163 161 160 159 158 159 159 163 165 164 163 158 149 151 158 149 128 114 106 105 102 96 97 100 96 92 90 85 83 81 76 77 84 88 91 96 100 102 98 87 80 81 81 80 76 68 64 63 62 62 63 62 60 55 48
182 185 185 185 184 179 173 170 167 165 165 163 161 162 161 162 167 169 167 168 161 157 170 174 154 138 129 118 111 111 117 111 103 103 99 91 87 89 94 97 90 85 97 103 100 100 99 91 82 85 87 84 84 79 69 63 63 64 67 66 64 63 59
182 184 186 186 184 179 176 173 170 169 169 166 164 163 162 160 164 167 168 174 171 163 177 191 178 163 154 137 128 132 134 124 119 114 110 103 96 97 112 120 111 102 110 111 106 107 105 96 86 90 95 89 84 83 78 70 66 63 63 62 60 59 54
183 185 187 187 184 182 179 174 172 171 170 169 165 163 163 161 161 163 166 178 180 170 180 198 191 181 173 153 142 148 152 136 131 127 123 118 109 102 109 120 120 118 118 114 111 115 114 106 96 88 98 97 88 83 79 80 87 74 57 50 47 43 36
184 185 187 186 185 186 183 177 173 172 172 172 168 166 166 163 160 159 161 171 177 170 176 196 195 188 184 169 154 152 163 152 142 139 138 132 126 119 112 114 122 123 119 117 115 116 119 117 106 83 84 98 99 101 98 89 89 88 73 49 40 35 27
184 186 187 186 186 189 188 180 175 175 175 174 171 169 169 166 163 162 162 166 172 173 180 193 196 192 189 178 164 155 156 167 156 148 149 145 141 138 126 117 127 128 124 122 119 115 118 116 107 99 101 105 109 115 116 93 60 61 55 36 36 34 31
182 185 187 186 187 191 191 185 180 179 179 177 173 172 173 172 170 167 167 169 172 179 191 197 196 194 193 189 176 163 153 171 172 161 157 156 149 142 134 131 136 133 129 128 125 121 117 108 104 102 102 103 103 98 93 67 24 39 40 35 38 35 30
182 185 187 188 190 191 192 190 186 184 183 179 177 177 178 180 178 175 175 177 175 179 191 198 199 197 195 195 187 174 165 172 175 167 163 163 154 143 138 141 143 135 129 129 128 122 114 106 102 99 97 99 95 83 74 57 41 45 40 34 37 36 30
182 186 188 189 192 194 194 191 189 188 187 184 183 183 184 186 187 185 184 184 183 181 184 193 203 202 197 197 194 185 179 178 175 171 172 166 155 148 148 150 145 134 131 135 134 126 118 107 100 96 96 93 82 69 59 49 45 43 40 36 37 38 34
Height
841 841 841 840 839 839 838 837 836 835 834 833 833 832 832 832 831 830 830 829 828 827 826 826 825 825 824 824 823 822 821 821 820 819 818 818 817 817 817 817 817 816 816 816 815 814 814 811 808 806 807 808 808 808 807 807 806 806 806 805 805 804 804
841 841 840 840 839 839 838 837 836 836 835 834 834 833 833 832 832 831 830 830 829 827 827 826 825 824 824 823 822 822 821 820 820 819 818 817 817 816 816 816 815 815 814 814 814 814 813 812 809 806 806 806 806 806 806 806 805 805 804 804 803 803 802
841 841 840 840 839 838 838 838 837 836 836 835 835 834 833 833 832 832 831 830 829 828 827 826 825 825 824 823 822 821 821 820 819 819 818 817 817 816 816 815 814 814 814 813 813 813 812 812 810 808 807 806 806 805 805 805 804 803 803 802 801 801 800
842 841 840 840 839 839 838 838 837 837 836 836 835 835 834 834 833 833 832 831 830 829 828 827 826 826 824 823 822 821 821 820 820 819 818 817 817 817 816 816 815 815 815 814 813 813 812 811 810 809 808 807 806 804 803 803 803 802 801 801 800 799 798
842 841 841 840 840 839 839 838 838 837 837 836 836 836 835 835 834 833 833 832 831 830 829 828 827 826 824 823 823 822 821 820 820 820 819 818 818 818 817 817 817 816 816 816 815 814 813 812 811 810 807 806 805 803 802 802 802 801 801 800 799 798 798
842 842 841 840 840 839 839 839 838 838 837 837 836 836 836 835 834 834 833 832 831 830 830 829 828 826 825 825 824 823 822 822 821 821 820 819 819 819 818 818 817 817 817 816 816 815 814 814 812 810 808 806 804 802 802 801 801 801 802 802 802 801 802
842 842 841 841 840 840 839 839 839 838 838 837 837 837 836 835 835 834 833 832 832 831 830 830 829 827 827 826 826 825 823 823 822 822 821 821 820 819 819 818 818 818 817 817 817 816 815 814 813 811 809 807 805 802 801 802 803 803 805 806 806 805 805
842 842 842 842 841 841 840 840 840 839 839 839 838 837 836 836 835 834 833 833 832 831 830 830 829 828 828 827 827 826 825 824 824 823 823 822 821 821 820 820 819 819 818 818 818 817 816 815 814 813 811 809 807 803 801 802 805 807 809 809 809 808 808
842 842 842 842 842 842 841 841 841 840 840 839 839 838 837 836 835 834 834 833 832 831 831 831 830 830 829 828 828 828 827 826 825 824 824 823 822 822 822 821 820 820 820 819 819 818 817 817 816 815 814 812 810 807 803 803 807 810 811 811 810 811 811
842 842 842 842 842 842 843 842 842 841 841 840 839 838 837 836 835 835 834 834 833 832 831 831 831 830 830 829 829 829 828 828 827 826 825 824 824 823 823 822 821 821 820 820 819 819 818 818 817 816 815 814 813 811 809 809 812 812 813 813 812 812 813
842 842 842 843 843 843 843 843 843 842 841 841 840 838 838 837 836 836 835 834 833 833 832 832 831 831 831 830 830 830 830 829 828 827 826 826 825 824 824 823 822 822 821 821 820 820 819 818 818 817 816 815 814 813 812 813 815 815 815 815 814 813 813
842 842 843 843 844 844 844 843 843 843 842 841 840 839 839 838 837 837 836 835 834 834 833 833 833 832 832 832 831 831 831 830 829 828 827 827 826 825 825 824 823 822 822 822 821 821 820 819 818 817 817 816 815 815 813 811 813 816 817 817 816 815 815
842 842 843 843 844 844 844 844 844 843 842 842 841 840 840 839 839 838 837 836 835 835 835 834 834 834 833 833 832 832 831 831 830 829 829 828 827 826 826 825 824 823 823 823 822 822 821 820 819 818 818 817 816 816 814 811 813 817 818 818 818 818 817
842 842 843 843 844 844 844 844 844 844 843 842 841 841 840 840 839 839 838 838 837 836 836 835 835 835 834 834 833 833 832 832 831 830 830 829 828 828 827 826 826 825 824 824 823 822 822 821 820 819 819 818 817 817 816 813 813 816 818 819 819 819 818
842 842 843 843 844 844 844 844 844 844 843 843 842 841 841 841 840 840 839 839 838 837 837 837 837 836 835 835 834 833 833 833 832 832 831 830 830 829 828 827 827 826 825 825 824 824 823 822 821 821 820 820 819 819 818 815 814 815 818 820 820 819 819
842 842 843 843 843 844 844 844 844 844 843 843 842 842 842 841 841 840 840 840 839 839 838 838 838 837 837 836 835 835 835 834 834 833 833 832 831 831 830 829 829 828 827 827 826 825 824 824 823 822 822 822 821 821 820 818 817 817 819 820 821 820 819
841 842 842 843 843 843 844 844 844 844 844 843 843 842 842 842 841 841 841 840 840 840 839 839 839 838 837 837 837 836 836 836 835 835 834 834 833 832 832 831 830 830 829 828 827 826 826 825 825 824 824 823 823 823 822 821 821 820 821 822 822 822 821
841 841 842 843 843 843 844 844 844 844 843 843 843 843 843 842 842 842 841 841 841 841 840 840 840 839 839 838 838 838 837 837 837 836 836 835 835 834 834 833 832 831 831 830 829 828 828 827 827 826 826 826 825 825 824 824 824 824 823 823 824 823 823
840 841 842 842 843 843 843 844 844 844 843 843 843 843 843 843 843 842 842 842 842 841 841 841 841 840 840 839 839 839 839 838 838 838 838 837 837 836 835 835 834 833 832 832 831 831 830 830 829 829 829 828 828 827 827 827 827 826 826 825 825 825 824
839 841 842 842 843 843 843 844 844 843 843 843 843 843 843 843 843 843 843 843 842 842 842 842 842 841 841 841 841 841 840 840 840 839 839 839 839 838 837 837 836 835 834 834 833 833 832 832 832 831 831 831 830 830 829 829 829 828 828 827 827 827 827
839 840 841 842 842 843 843 843 843 843 843 843 844 844 844 844 844 844 844 843 843 843 843 843 843 842 843 842 842 842 842 842 841 841 841 841 841 840 840 839 838 837 837 836 835 834 834 834 834 834 833 833 832 832 831 831 830 830 829 829 829 829 829
838 839 841 841 842 843 843 843 843 843 843 843 844 844 844 844 844 844 845 844 844 844 844 844 843 843 844 844 844 843 843 843 843 843 843 843 842 842 842 841 840 840 839 839 838 837 836 836 835 835 835 835 834 834 834 833 832 832 832 831 831 831 831
837 839 840 841 841 842 842 843 843 843 843 844 844 844 845 845 845 845 845 845 845 845 845 845 844 844 844 844 845 845 844 844 844 844 844 844 844 844 844 843 843 842 842 841 841 840 839 839 838 838 837 837 836 836 836 836 835 835 834 834 834 834 833
836 838 839 840 841 841 842 842 843 843 843 844 844 845 845 845 846 846 846 846 846 846 846 846 846 846 845 845 846 846 846 846 846 845 845 845 845 846 846 845 845 845 845 844 843 843 842 842 841 841 841 840 839 839 838 838 838 838 838 837 837 837 836
834 836 838 839 840 841 841 842 842 843 843 844 844 845 845 846 846 846 847 847 847 847 847 847 847 847 847 846 846 847 847 847 847 847 847 847 847 847 847 847 847 847 847 846 846 846 845 844 844 844 844 843 842 841 841 841 841 841 841 840 840 840 839
832 835 836 838 839 840 841 841 842 843 843 843 844 845 845 846 846 847 847 847 848 848 848 848 848 848 848 847 847 848 848 848 848 848 848 848 848 848 848 848 848 848 848 848 848 849 848 847 847 846 846 846 845 844 844 843 843 843 843 843 843 843 842
830 833 835 836 837 838 840 841 841 842 843 843 844 845 845 846 847 847 847 848 848 848 848 848 848 848 848 848 848 849 849 849 849 849 849 849 849 849 849 850 850 850 850 849 849 850 850 850 849 849 849 849 848 847 846 845 845 844 844 844 845 845 844
829 831 833 835 836 837 839 840 841 842 842 843 844 844 845 846 846 847 847 848 848 848 848 849 849 849 849 849 849 850 850 850 850 850 850 850 850 851 851 851 851 851 851 851 850 850 851 851 851 851 851 851 850 850 848 847 847 846 846 846 846 846 846
826 829 831 833 834 836 837 839 840 841 842 843 843 844 845 846 846 847 847 848 848 848 848 849 849 849 849 849 850 851 851 851 851 851 852 852 852 852 852 852 853 853 852 852 851 851 851 852 852 852 852 852 852 851 850 849 849 848 848 848 847 847 847
824 827 829 831 832 834 836 837 839 840 841 842 843 844 844 845 846 847 847 847 848 848 848 848 849 849 850 850 850 851 852 852 852 852 853 853 853 852 852 853 853 854 853 852 852 852 852 852 853 853 853 853 853 853 852 851 851 850 850 849 849 849 848
822 824 827 829 831 832 834 836 837 839 840 841 842 843 844 845 846 846 847 847 848 848 848 848 848 849 849 850 850 851 852 852 853 853 853 853 854 853 853 853 853 854 854 853 853 853 853 853 854 854 854 854 854 853 853 853 852 852 851 850 850 849 848
819 822 824 827 829 831 832 834 835 837 839 840 841 842 843 844 845 846 846 847 847 848 848 848 848 849 849 850 850 851 852 852 853 853 853 854 855 855 854 854 854 854 854 854 854 854 854 854 855 855 855 854 854 854 854 854 854 853 852 852 851 850 849
817 820 822 825 827 829 831 832 834 835 837 838 840 841 842 844 844 845 846 846 846 847 848 847 848 848 849 849 849 850 851 852 852 853 853 854 855 855 855 855 855 855 855 855 855 855 855 855 855 855 855 854 854 855 854 854 854 853 853 852 851 850 850
815 817 820 823 825 827 829 831 832 834 835 837 838 840 841 842 843 844 845 846 846 847 847 847 847 847 848 849 849 849 851 852 852 853 853 854 854 855 856 856 856 855 855 855 856 856 856 855 855 855 855 854 854 854 854 854 853 852 852 852 851 850 850
813 816 818 820 823 825 827 829 830 832 833 835 836 838 840 841 842 843 844 845 845 846 846 846 846 847 847 848 848 849 850 851 852 852 853 853 854 855 856 856 856 855 855 856 856 856 856 856 855 855 854 854 854 854 853 854 854 853 852 852 851 851 850
811 813 816 818 821 823 825 827 829 830 831 833 834 836 838 839 840 841 842 843 844 845 845 845 845 846 846 847 848 848 849 850 851 852 853 853 853 855 855 855 855 855 856 856 856 856 856 856 855 855 855 855 854 854 853 854 854 853 852 852 851 851 851
808 811 813 816 818 821 823 825 826 828 829 831 832 833 835 836 838 839 840 841 842 843 844 844 844 845 845 846 847 848 848 849 850 851 852 853 853 854 855 855 855 855 855 856 856 856 856 856 856 855 855 855 855 854 854 854 854 853 853 852 852 851 851